Tracking 33190 objects as of 9-Feb-2026
HD Live streaming from Space Station
objects crossing your sky now

STARLINK-3312

Track STARLINK-3312 now!
10-day predictions
STARLINK-3312 is classified as:


NORAD ID: 50850
Int'l Code: 2022-001AZ
Perigee: 545.8 km
Apogee: 548.1 km
Inclination: 53.2 °
Period: 95.4 minutes
Semi major axis: 6917 km
RCS: Unknown
Launch date: January 6, 2022
Source: United States (US)
Launch site: AIR FORCE EASTERN TEST RANGE (AFETR)
Your satellite tracking list
Your tracking list is empty




NASA's NSSDC Master Catalog

Two Line Element Set (TLE):
1 50850U 22001AZ  26039.92419836  .00001654  00000-0  12208-3 0  9997
2 50850  53.2169 268.2562 0001664 101.3149 258.8030 15.08815146227021
Source of the keplerian elements: AFSPC